Time,TemperatureF,DewpointF,PressureIn,WindDirection,WindDirectionDegrees,WindSpeedMPH,WindSpeedGustMPH,Humidity,HourlyPrecipIn,Conditions,Clouds,dailyrainin,SoftwareType,DateUTC
2013-04-24 00:12:00,73.4,72.2,29.84,NE,45,0.0,-999.0,96,-99.99,,,0.00,Acu-Link.com,2013-04-24 05:12:00,
2013-04-24 00:27:00,73.6,72.4,29.86,NE,45,1.1,-999.0,96,-99.99,,,0.00,Acu-Link.com,2013-04-24 05:27:00,
2013-04-24 00:42:00,73.8,72.6,29.87,East,90,0.0,-999.0,96,-99.99,,,0.00,Acu-Link.com,2013-04-24 05:42:00,
2013-04-24 00:57:00,73.9,72.7,29.86,NE,45,2.7,-999.0,96,-99.99,,,0.00,Acu-Link.com,2013-04-24 05:57:00,
2013-04-24 01:12:00,73.9,72.7,29.85,NE,45,2.2,-999.0,96,-99.99,,,0.00,Acu-Link.com,2013-04-24 06:12:00,
2013-04-24 01:27:00,73.8,72.6,29.85,NNE,22,2.2,-999.0,96,-99.99,,,0.00,Acu-Link.com,2013-04-24 06:27:00,
2013-04-24 01:43:00,73.8,72.6,29.86,NNE,22,3.7,-999.0,96,-99.99,,,0.00,Acu-Link.com,2013-04-24 06:43:00,
2013-04-24 01:58:00,73.8,72.6,29.87,NE,45,1.7,-999.0,96,-99.99,,,0.00,Acu-Link.com,2013-04-24 06:58:00,
2013-04-24 02:13:00,73.6,72.4,29.86,NE,45,2.2,-999.0,96,-99.99,,,0.00,Acu-Link.com,2013-04-24 07:13:00,
2013-04-24 02:28:00,73.6,72.4,29.85,ENE,67,3.2,-999.0,96,-99.99,,,0.00,Acu-Link.com,2013-04-24 07:28:00,
2013-04-24 02:43:00,73.6,72.4,29.84,East,90,2.2,-999.0,96,-99.99,,,0.00,Acu-Link.com,2013-04-24 07:43:00,
2013-04-24 02:58:00,73.6,72.4,29.85,NE,45,2.7,-999.0,96,-99.99,,,0.00,Acu-Link.com,2013-04-24 07:58:00,
2013-04-24 03:13:00,66.4,61.1,29.89,NNE,22,3.7,-999.0,83,-99.99,,,0.00,Acu-Link.com,2013-04-24 08:13:00,
2013-04-24 03:28:00,64.9,60.3,29.89,NNW,337,6.3,-999.0,85,-99.99,,,0.00,Acu-Link.com,2013-04-24 08:28:00,
2013-04-24 03:43:00,61.9,58.3,29.89,North,0,7.8,-999.0,88,-99.99,,,0.00,Acu-Link.com,2013-04-24 08:43:00,
2013-04-24 03:58:00,60.8,58.2,29.89,WSW,247,3.7,-999.0,91,-99.99,,,0.00,Acu-Link.com,2013-04-24 08:58:00,
2013-04-24 04:14:00,58.6,57.2,29.90,NNE,22,7.8,-999.0,95,-99.99,,,0.00,Acu-Link.com,2013-04-24 09:14:00,
2013-04-24 04:29:00,56.7,55.9,29.90,WNW,292,7.8,-999.0,97,-99.99,,,0.01,Acu-Link.com,2013-04-24 09:29:00,
2013-04-24 04:44:00,55.9,55.3,29.93,WNW,292,5.3,-999.0,98,-99.99,,,0.01,Acu-Link.com,2013-04-24 09:44:00,
2013-04-24 04:59:00,55.0,54.4,29.93,NE,45,10.9,-999.0,98,-99.99,,,0.02,Acu-Link.com,2013-04-24 09:59:00,
2013-04-24 05:14:00,54.5,53.9,29.93,North,0,8.3,-999.0,98,-99.99,,,0.02,Acu-Link.com,2013-04-24 10:14:00,
2013-04-24 05:29:00,52.9,52.6,29.94,NNW,337,4.2,-999.0,99,-99.99,,,0.02,Acu-Link.com,2013-04-24 10:29:00,
2013-04-24 05:44:00,52.5,52.2,29.94,NNW,337,8.9,-999.0,99,-99.99,,,0.03,Acu-Link.com,2013-04-24 10:44:00,
2013-04-24 05:59:00,52.0,51.7,29.94,NNE,22,9.4,-999.0,99,-99.99,,,0.03,Acu-Link.com,2013-04-24 10:59:00,
2013-04-24 06:15:00,51.8,51.5,29.95,North,0,14.0,-999.0,99,-99.99,,,0.03,Acu-Link.com,2013-04-24 11:15:00,
2013-04-24 06:30:00,51.8,51.5,29.95,North,0,7.3,-999.0,99,-99.99,,,0.03,Acu-Link.com,2013-04-24 11:30:00,
2013-04-24 06:45:00,51.3,50.8,29.97,NNE,22,9.9,-999.0,98,-99.99,,,0.03,Acu-Link.com,2013-04-24 11:45:00,
2013-04-24 07:00:00,51.3,50.5,29.97,NW,315,13.5,-999.0,97,-99.99,,,0.03,Acu-Link.com,2013-04-24 12:00:00,
2013-04-24 07:15:00,51.1,50.0,29.98,North,0,6.8,-999.0,96,-99.99,,,0.03,Acu-Link.com,2013-04-24 12:15:00,
2013-04-24 07:30:00,51.3,50.2,29.98,NW,315,7.3,-999.0,96,-99.99,,,0.03,Acu-Link.com,2013-04-24 12:30:00,
2013-04-24 07:45:00,50.9,49.5,29.99,WNW,292,5.3,-999.0,95,-99.99,,,0.03,Acu-Link.com,2013-04-24 12:45:00,
2013-04-24 08:00:00,50.7,49.0,29.99,ENE,67,6.8,-999.0,94,-99.99,,,0.03,Acu-Link.com,2013-04-24 13:00:00,
2013-04-24 08:15:00,50.5,48.6,30.01,NE,45,6.3,-999.0,93,-99.99,,,0.03,Acu-Link.com,2013-04-24 13:15:00,
2013-04-24 08:31:00,50.9,48.9,30.01,North,0,9.9,-999.0,93,-99.99,,,0.03,Acu-Link.com,2013-04-24 13:31:00,
2013-04-24 08:46:00,51.6,49.1,30.00,NNE,22,6.3,-999.0,91,-99.99,,,0.03,Acu-Link.com,2013-04-24 13:46:00,
2013-04-24 09:01:00,51.8,49.0,30.01,WNW,292,7.8,-999.0,90,-99.99,,,0.03,Acu-Link.com,2013-04-24 14:01:00,
2013-04-24 09:16:00,52.2,48.8,30.02,North,0,6.8,-999.0,88,-99.99,,,0.03,Acu-Link.com,2013-04-24 14:16:00,
2013-04-24 09:31:00,52.5,48.4,30.03,WSW,247,6.3,-999.0,86,-99.99,,,0.03,Acu-Link.com,2013-04-24 14:31:00,
2013-04-24 09:46:00,52.7,48.6,30.03,West,270,3.7,-999.0,86,-99.99,,,0.03,Acu-Link.com,2013-04-24 14:46:00,
2013-04-24 10:01:00,52.7,48.3,30.04,NW,315,8.9,-999.0,85,-99.99,,,0.03,Acu-Link.com,2013-04-24 15:01:00,
2013-04-24 10:16:00,52.5,47.8,30.04,North,0,5.8,-999.0,84,-99.99,,,0.03,Acu-Link.com,2013-04-24 15:16:00,
2013-04-24 10:31:00,53.1,48.4,30.04,WNW,292,4.7,-999.0,84,-99.99,,,0.03,Acu-Link.com,2013-04-24 15:31:00,
2013-04-24 10:47:00,53.2,48.2,30.05,NNW,337,4.2,-999.0,83,-99.99,,,0.03,Acu-Link.com,2013-04-24 15:47:00,
2013-04-24 11:02:00,53.2,49.1,30.05,West,270,3.2,-999.0,86,-99.99,,,0.03,Acu-Link.com,2013-04-24 16:02:00,
2013-04-24 11:17:00,53.6,48.2,30.05,West,270,4.2,-999.0,82,-99.99,,,0.03,Acu-Link.com,2013-04-24 16:17:00,
2013-04-24 11:32:00,54.0,49.3,30.05,NW,315,3.7,-999.0,84,-99.99,,,0.03,Acu-Link.com,2013-04-24 16:32:00,
2013-04-24 11:47:00,54.3,48.9,30.06,North,0,5.8,-999.0,82,-99.99,,,0.03,Acu-Link.com,2013-04-24 16:47:00,
2013-04-24 12:02:00,54.7,48.3,30.05,North,0,4.2,-999.0,79,-99.99,,,0.03,Acu-Link.com,2013-04-24 17:02:00,
2013-04-24 12:17:00,54.5,48.1,30.06,NNE,22,10.4,-999.0,79,-99.99,,,0.03,Acu-Link.com,2013-04-24 17:17:00,
2013-04-24 12:32:00,54.3,48.3,30.06,NNW,337,5.3,-999.0,80,-99.99,,,0.03,Acu-Link.com,2013-04-24 17:32:00,
2013-04-24 12:47:00,53.8,48.1,30.07,West,270,5.8,-999.0,81,-99.99,,,0.03,Acu-Link.com,2013-04-24 17:47:00,
2013-04-24 13:03:00,52.9,48.2,30.06,NNW,337,4.2,-999.0,84,-99.99,,,0.03,Acu-Link.com,2013-04-24 18:03:00,
2013-04-24 13:18:00,52.5,48.1,30.06,NW,315,4.7,-999.0,85,-99.99,,,0.03,Acu-Link.com,2013-04-24 18:18:00,
2013-04-24 13:33:00,52.5,48.4,30.07,SW,225,2.2,-999.0,86,-99.99,,,0.03,Acu-Link.com,2013-04-24 18:33:00,
2013-04-24 13:48:00,53.2,49.4,30.07,West,270,3.7,-999.0,87,-99.99,,,0.03,Acu-Link.com,2013-04-24 18:48:00,
2013-04-24 14:03:00,53.1,49.6,30.07,West,270,7.3,-999.0,88,-99.99,,,0.03,Acu-Link.com,2013-04-24 19:03:00,
2013-04-24 14:18:00,53.1,48.7,30.06,West,270,4.2,-999.0,85,-99.99,,,0.03,Acu-Link.com,2013-04-24 19:18:00,
2013-04-24 14:33:00,53.6,48.6,30.06,NW,315,3.2,-999.0,83,-99.99,,,0.03,Acu-Link.com,2013-04-24 19:33:00,
2013-04-24 14:48:00,53.8,48.4,30.06,WNW,292,5.8,-999.0,82,-99.99,,,0.03,Acu-Link.com,2013-04-24 19:48:00,
2013-04-24 15:03:00,54.0,48.3,30.06,WNW,292,5.3,-999.0,81,-99.99,,,0.03,Acu-Link.com,2013-04-24 20:03:00,
2013-04-24 15:19:00,54.5,48.5,30.05,West,270,5.8,-999.0,80,-99.99,,,0.03,Acu-Link.com,2013-04-24 20:19:00,
2013-04-24 15:34:00,54.9,48.5,30.05,NW,315,6.3,-999.0,79,-99.99,,,0.03,Acu-Link.com,2013-04-24 20:34:00,
2013-04-24 15:49:00,56.3,49.5,30.04,WSW,247,2.7,-999.0,78,-99.99,,,0.03,Acu-Link.com,2013-04-24 20:49:00,
2013-04-24 16:04:00,56.7,48.5,30.04,NNE,22,3.7,-999.0,74,-99.99,,,0.03,Acu-Link.com,2013-04-24 21:04:00,
2013-04-24 16:19:00,57.7,49.1,30.03,North,0,5.8,-999.0,73,-99.99,,,0.03,Acu-Link.com,2013-04-24 21:19:00,
2013-04-24 16:34:00,57.9,48.9,30.03,NNW,337,3.2,-999.0,72,-99.99,,,0.03,Acu-Link.com,2013-04-24 21:34:00,
2013-04-24 16:50:00,57.9,48.9,30.02,NNE,22,6.3,-999.0,72,-99.99,,,0.03,Acu-Link.com,2013-04-24 21:50:00,
2013-04-24 17:05:00,58.5,49.1,30.02,West,270,4.7,-999.0,71,-99.99,,,0.03,Acu-Link.com,2013-04-24 22:05:00,
2013-04-24 17:20:00,58.3,48.9,30.01,NW,315,5.3,-999.0,71,-99.99,,,0.03,Acu-Link.com,2013-04-24 22:20:00,
2013-04-24 17:35:00,59.5,49.7,30.00,NW,315,5.8,-999.0,70,-99.99,,,0.03,Acu-Link.com,2013-04-24 22:35:00,
2013-04-24 17:50:00,59.7,49.5,30.01,NNW,337,4.7,-999.0,69,-99.99,,,0.03,Acu-Link.com,2013-04-24 22:50:00,
2013-04-24 18:05:00,59.7,49.5,30.01,NNW,337,3.7,-999.0,69,-99.99,,,0.03,Acu-Link.com,2013-04-24 23:05:00,
2013-04-24 18:20:00,60.1,49.5,30.01,WNW,292,3.7,-999.0,68,-99.99,,,0.03,Acu-Link.com,2013-04-24 23:20:00,
2013-04-24 18:36:00,60.1,49.5,30.02,ENE,67,2.2,-999.0,68,-99.99,,,0.03,Acu-Link.com,2013-04-24 23:36:00,
2013-04-24 18:51:00,60.3,49.7,30.02,NNE,22,1.1,-999.0,68,-99.99,,,0.03,Acu-Link.com,2013-04-24 23:51:00,
2013-04-24 19:06:00,60.4,50.2,30.02,NNW,337,4.2,-999.0,69,-99.99,,,0.03,Acu-Link.com,2013-04-25 00:06:00,
2013-04-24 19:21:00,60.4,50.2,30.03,NE,45,1.7,-999.0,69,-99.99,,,0.03,Acu-Link.com,2013-04-25 00:21:00,
2013-04-24 19:36:00,60.6,50.4,30.03,NE,45,2.2,-999.0,69,-99.99,,,0.03,Acu-Link.com,2013-04-25 00:36:00,
2013-04-24 19:51:00,60.8,51.0,30.03,SW,225,4.7,-999.0,70,-99.99,,,0.03,Acu-Link.com,2013-04-25 00:51:00,
2013-04-24 20:06:00,61.2,50.9,30.03,NNW,337,3.7,-999.0,69,-99.99,,,0.03,Acu-Link.com,2013-04-25 01:06:00,
2013-04-24 20:21:00,61.3,51.4,30.04,NNE,22,2.7,-999.0,70,-99.99,,,0.03,Acu-Link.com,2013-04-25 01:21:00,
2013-04-24 20:36:00,61.5,52.0,30.03,North,0,4.2,-999.0,71,-99.99,,,0.03,Acu-Link.com,2013-04-25 01:36:00,
2013-04-24 20:52:00,61.7,52.2,30.04,NNE,22,3.7,-999.0,71,-99.99,,,0.03,Acu-Link.com,2013-04-25 01:52:00,
2013-04-24 21:07:00,62.1,53.3,30.05,ESE,112,3.7,-999.0,73,-99.99,,,0.03,Acu-Link.com,2013-04-25 02:07:00,
2013-04-24 21:22:00,62.4,53.6,30.05,NE,45,4.7,-999.0,73,-99.99,,,0.03,Acu-Link.com,2013-04-25 02:22:00,
2013-04-24 21:37:00,62.6,53.8,30.06,North,0,3.7,-999.0,73,-99.99,,,0.03,Acu-Link.com,2013-04-25 02:37:00,
2013-04-24 21:52:00,62.6,53.8,30.06,NNE,22,4.2,-999.0,73,-99.99,,,0.03,Acu-Link.com,2013-04-25 02:52:00,
2013-04-24 22:07:00,62.8,54.0,30.08,NE,45,2.7,-999.0,73,-99.99,,,0.03,Acu-Link.com,2013-04-25 03:07:00,
2013-04-24 22:23:00,62.8,54.0,30.07,NE,45,2.7,-999.0,73,-99.99,,,0.03,Acu-Link.com,2013-04-25 03:23:00,
2013-04-24 22:38:00,63.1,54.3,30.07,NW,315,3.7,-999.0,73,-99.99,,,0.03,Acu-Link.com,2013-04-25 03:38:00,
2013-04-24 22:53:00,63.1,54.3,30.08,NW,315,2.7,-999.0,73,-99.99,,,0.03,Acu-Link.com,2013-04-25 03:53:00,
2013-04-24 23:08:00,63.0,54.2,30.10,NNE,22,2.2,-999.0,73,-99.99,,,0.03,Acu-Link.com,2013-04-25 04:08:00,
2013-04-24 23:23:00,63.0,53.8,30.09,WSW,247,0.0,-999.0,72,-99.99,,,0.03,Acu-Link.com,2013-04-25 04:23:00,
2013-04-24 23:38:00,62.8,53.6,30.09,WSW,247,1.7,-999.0,72,-99.99,,,0.03,Acu-Link.com,2013-04-25 04:38:00,
2013-04-24 23:53:00,62.6,53.4,30.09,WNW,292,1.7,-999.0,72,-99.99,,,0.03,Acu-Link.com,2013-04-25 04:53:00,